GFSNE_prec_cthk_078.txt.gz
RH
41 36 34 32 33 37 40 41 43 45 46 45 45 46 50 53 53 62 68 79 82 91 95 94 98 94 98 97 98 98 97 98 98 98 98 98 96 95
29 29 28 30 36 39 40 41 42 47 48 47 47 46 55 56 60 70 75 80 86 97 95 94 90 96 97 98 98 97 98 96 96 96 97 95 94 88
26 28 33 37 40 42 43 44 47 47 48 50 51 52 58 61 65 74 82 83 92 93 92 91 93 95 95 98 98 97 99 96 97 96 91 82 76 70
34 38 40 41 43 45 46 46 49 51 55 55 55 58 60 65 71 75 82 84 92 93 92 94 90 89 90 92 97 93 96 97 90 79 72 62 51 45
41 41 42 44 46 46 48 50 52 57 58 58 59 64 63 67 71 74 78 83 84 86 85 83 83 85 88 87 87 81 71 62 55 39 34 32 32 33
44 44 46 46 48 49 50 52 54 54 49 46 45 44 45 44 47 48 51 54 58 62 63 60 56 54 51 45 37 29 24 20 19 19 20 19 18 19
41 40 42 40 37 34 34 33 33 33 34 34 32 33 33 32 33 33 36 37 36 34 29 24 20 17 16 14 13 13 13 14 15 17 19 21 22 22
33 32 32 30 27 26 25 23 21 19 17 17 17 17 18 19 20 20 21 20 20 19 17 16 17 16 16 17 18 19 21 23 25 25 24 24 25 24
17 18 17 16 16 17 17 18 18 18 18 18 19 19 20 21 21 21 21 19 18 16 14 14 16 17 18 18 20 21 22 22 22 23 25 27 26 26
18 18 18 18 18 19 20 21 21 22 22 22 22 22 22 22 21 21 20 18 16 15 16 18 20 21 21 21 23 23 22 23 23 24 25 25 25 26
20 21 21 21 21 22 23 23 24 24 24 24 23 22 22 21 19 19 18 18 18 19 21 23 22 24 24 25 26 26 26 26 27 29 29 30 31 30
23 24 25 26 27 27 27 27 26 26 26 24 24 23 23 23 23 22 23 23 24 25 26 27 29 30 30 30 29 29 29 30 31 32 32 33 33 33
27 30 32 33 32 31 30 30 29 29 29 30 31 31 30 30 30 30 30 30 30 30 32 34 35 35 34 32 31 31 32 33 34 34 34 35 36 35
34 36 38 38 37 36 35 34 34 35 36 35 35 35 35 35 35 35 35 36 36 37 39 40 39 38 38 36 31 32 35 38 38 38 38 39 41 42
40 42 43 43 42 42 41 39 41 41 40 39 39 41 42 42 41 40 40 41 41 42 42 44 43 41 41 40 35 37 40 41 41 42 45 47 48 49
43 44 45 46 47 47 46 46 46 45 45 45 45 45 46 46 46 46 45 47 47 48 50 50 50 48 46 46 42 42 45 47 49 47 48 50 51 53
43 45 47 48 49 50 49 49 50 51 52 51 48 47 46 46 45 47 49 51 54 55 58 61 60 55 54 53 48 50 51 53 54 54 53 53 55 56
43 45 46 48 50 51 51 52 53 52 52 52 48 43 44 46 47 49 51 55 62 62 64 66 65 62 59 58 58 55 57 60 63 62 62 60 60 63
43 44 45 49 51 52 53 56 57 53 51 47 45 41 42 44 48 52 56 63 70 71 72 71 70 69 68 65 64 65 63 66 66 67 66 64 61 65
44 44 45 48 50 52 52 57 59 56 48 44 39 37 39 44 52 55 60 66 72 75 73 75 76 77 76 75 69 69 73 71 70 69 70 68 66 66
48 48 49 50 50 53 60 63 57 54 47 41 40 41 41 44 52 57 63 68 71 74 71 71 77 80 76 71 65 67 79 84 84 81 81 78 75 71
52 52 52 52 52 60 65 62 57 53 46 43 44 45 47 50 54 59 65 71 73 73 73 74 75 72 72 72 71 72 75 86 89 90 92 89 84 79
56 56 55 56 61 66 65 60 57 52 48 47 49 50 54 58 60 65 70 75 76 77 75 69 69 72 74 75 74 74 77 80 84 86 91 93 90 83

GFSNE_prec_cthk_081.txt.gz
RH
38 40 41 35 32 33 34 37 41 44 44 45 45 45 44 46 47 52 55 58 64 60 62 76 86 91 93 98 98 97 98 96 97 98 98 97 97 98
38 35 30 30 29 30 36 40 41 42 45 46 46 47 51 51 53 56 59 61 66 69 72 77 88 91 95 97 95 96 97 97 98 98 98 98 98 98
27 27 27 29 34 39 41 42 43 46 45 46 50 52 54 57 57 61 62 63 71 74 78 80 82 90 92 92 93 95 97 98 96 96 96 97 97 94
30 31 35 39 41 42 43 44 45 46 48 51 52 53 56 56 57 58 61 64 69 73 76 79 82 84 86 85 88 91 90 92 94 93 92 86 82 75
37 39 41 43 42 43 44 45 46 46 49 50 41 40 39 41 39 39 42 43 45 46 52 60 66 69 70 75 78 77 77 75 68 59 54 51 48 45
41 43 44 43 42 40 38 36 34 33 32 33 32 32 31 31 32 33 33 35 39 41 41 40 39 39 38 38 33 25 19 16 13 12 14 17 20 22
46 40 37 34 32 31 29 29 28 27 27 26 25 25 25 26 26 25 26 27 26 25 24 23 21 19 18 17 16 15 14 14 16 18 20 21 24 24
35 30 28 26 24 20 19 17 16 17 18 19 19 19 20 20 20 21 21 21 21 19 17 16 14 12 12 13 15 16 17 18 19 21 21 22 22 22
19 18 18 18 19 19 19 19 19 20 21 21 21 21 22 22 22 21 21 20 19 18 15 14 14 15 16 17 18 19 20 21 21 21 21 21 21 21
19 19 20 21 21 21 22 23 24 24 23 23 23 23 22 21 21 20 19 18 17 16 16 17 19 20 21 22 23 24 24 25 26 25 25 25 24 23
20 22 22 24 24 27 28 28 27 27 26 26 25 24 23 23 23 23 23 24 23 23 23 24 25 26 26 27 28 29 30 30 29 28 27 26 26 26
23 25 26 29 31 33 33 32 31 31 31 30 31 30 30 30 30 31 31 31 31 31 30 31 30 31 31 33 34 34 34 33 31 30 28 28 28 28
27 30 34 36 37 37 37 36 36 36 37 37 36 36 35 35 36 37 37 37 37 36 35 36 37 39 39 38 38 38 37 34 33 31 28 29 29 30
34 38 40 41 41 41 41 42 42 42 41 41 41 41 41 41 42 41 40 38 35 34 35 36 37 40 41 43 42 42 42 40 38 36 33 34 35 36
39 41 43 44 44 44 45 46 47 47 46 46 47 48 47 45 44 41 37 36 35 34 35 37 39 42 46 50 48 47 48 46 44 42 37 38 41 42
41 42 45 46 45 46 47 48 49 49 51 53 51 50 48 46 41 37 35 36 36 39 40 42 46 50 56 58 58 57 59 54 53 51 49 43 42 45
41 43 46 46 45 46 47 49 50 51 54 56 54 52 49 43 40 38 38 39 42 44 46 51 53 59 64 66 62 64 61 60 61 60 58 55 52 51
41 44 46 45 44 45 46 48 50 50 54 57 55 52 45 40 39 38 39 43 48 51 52 56 61 65 68 69 68 67 67 69 70 70 67 63 60 62
41 46 47 47 46 46 47 49 51 55 60 59 57 49 41 36 37 38 41 46 50 53 55 59 66 70 72 73 72 74 76 79 78 78 75 68 61 65
44 50 50 49 49 49 50 52 56 61 63 62 55 48 41 39 38 39 43 48 52 56 57 62 68 71 72 72 70 69 71 68 68 68 72 71 69 70
48 54 52 51 52 53 54 58 62 67 67 62 53 47 42 41 42 44 45 49 53 57 61 68 71 73 73 69 63 59 65 67 69 70 73 73 77 80
51 57 54 54 56 56 60 65 69 73 71 60 52 47 44 44 47 49 51 54 59 62 65 74 77 74 66 60 58 58 61 67 70 72 76 75 76 77
61 63 58 58 58 60 66 70 75 78 74 61 51 48 47 48 51 54 56 60 61 66 72 79 75 64 59 61 64 65 67 69 70 71 75 81 82 79

GFSNE_prec_cthk_084.txt.gz
RH
37 41 43 41 42 42 38 35 34 40 43 42 41 41 41 44 43 45 46 52 54 56 58 60 63 66 76 89 85 93 98 98 97 97 98 97 98 97
37 37 37 39 36 35 32 32 38 41 43 42 43 42 45 46 47 51 51 53 57 57 61 65 69 72 75 82 87 92 92 97 97 97 97 96 95 96
33 35 33 32 31 32 36 39 42 42 43 42 44 47 47 48 51 51 53 55 55 55 60 63 67 72 77 81 83 86 86 92 93 96 97 97 98 97
28 28 30 33 36 39 41 41 42 42 43 45 47 39 38 38 40 37 36 39 41 45 46 47 54 59 64 68 71 74 78 81 81 82 85 88 89 91
31 34 38 40 41 42 42 42 42 41 41 39 35 32 32 32 32 34 33 33 36 39 40 42 43 48 51 51 51 52 56 58 58 57 59 59 54 51
39 42 43 43 43 41 35 34 32 31 31 30 29 29 27 27 28 29 29 29 32 33 36 38 38 36 36 33 32 31 29 25 21 17 15 14 14 15
45 46 44 41 35 32 30 29 28 28 26 26 24 24 25 25 24 23 22 21 21 21 21 20 20 19 17 16 15 14 13 13 13 12 13 15 16 19
49 41 33 31 28 26 23 21 19 18 19 20 20 22 21 21 21 21 21 21 25 19 19 18 16 15 14 13 13 13 14 14 15 15 16 18 21 22
35 27 22 20 20 20 20 21 22 23 24 24 24 23 23 23 22 21 20 20 21 19 17 18 16 16 16 17 17 18 19 19 20 21 22 23 24 25
21 20 21 21 21 22 23 25 27 28 27 27 27 26 26 25 24 23 23 23 23 22 22 23 23 23 23 24 25 26 25 25 25 25 27 28 28 28
21 21 22 23 24 25 29 31 31 32 31 30 30 29 28 28 28 28 29 29 32 31 30 31 31 30 29 26 26 26 27 30 32 32 33 33 33 31
22 23 24 26 29 32 35 36 36 35 35 35 35 35 35 34 34 34 35 36 37 37 34 31 28 28 27 27 28 29 30 30 35 36 37 37 37 34
26 27 28 32 36 39 39 39 39 39 40 41 41 40 40 39 39 39 39 39 38 34 31 29 29 30 31 30 30 30 32 33 36 39 40 38 37 35
29 30 34 39 41 42 43 42 42 43 44 45 44 44 45 45 44 43 41 40 36 31 30 30 30 32 34 34 33 35 38 39 45 45 43 42 41 39
31 35 39 41 43 45 45 45 45 46 47 47 48 50 50 49 47 45 45 38 33 31 31 32 34 38 39 39 41 44 47 53 56 52 52 48 46 45
34 37 40 42 43 45 46 45 46 46 48 49 51 53 53 52 49 49 45 39 34 33 34 35 40 44 45 45 49 53 60 63 63 61 61 59 55 51
36 38 40 42 42 45 46 46 46 46 47 49 53 56 55 54 53 50 43 38 36 35 37 41 44 48 50 51 54 61 67 66 65 64 63 63 64 64
33 36 38 40 42 45 48 48 47 48 49 52 56 60 59 57 56 48 42 39 38 39 41 44 49 53 53 54 59 67 70 71 71 72 72 70 71 73
34 37 40 40 40 46 52 50 50 51 53 57 63 65 63 61 58 48 39 38 39 41 44 46 51 54 54 58 63 66 66 68 70 70 70 67 64 69
38 39 39 41 43 51 56 52 53 54 58 63 70 70 68 65 61 48 41 40 40 43 46 49 53 54 56 60 67 70 69 62 57 55 57 57 57 59
43 44 46 47 48 55 58 55 55 59 64 69 75 76 73 70 63 46 42 42 45 48 52 56 60 59 60 62 66 65 57 54 55 56 59 59 57 58
53 54 55 54 55 58 61 58 58 63 70 74 81 80 79 73 59 45 45 46 49 52 59 63 63 63 64 67 65 53 51 57 60 60 61 62 61 61
60 59 58 60 60 63 67 62 61 68 78 83 84 84 81 71 55 48 48 49 53 60 64 67 68 66 69 68 60 49 54 59 58 57 59 65 66 65

GFSNE_prec_cthk_087.txt.gz
RH
38 35 39 41 45 51 44 43 41 41 40 38 42 42 40 39 39 39 40 41 44 48 49 51 53 56 60 65 67 71 84 88 89 95 98 98 97 97
38 38 40 42 46 42 40 36 36 37 40 43 43 41 40 39 41 41 43 46 47 48 50 51 53 56 60 64 71 75 79 82 84 87 97 97 97 96
34 37 39 40 40 35 33 33 38 40 44 44 42 41 42 38 38 38 39 38 40 42 43 45 45 46 53 58 61 65 66 68 70 76 85 88 93 94
33 34 35 34 32 34 36 41 41 42 42 41 42 43 35 30 29 29 32 31 32 34 36 39 40 40 44 51 55 57 56 55 59 65 67 70 79 83
33 33 33 35 37 41 42 42 42 40 37 36 34 31 29 28 28 29 30 31 30 32 34 35 36 38 39 41 44 45 44 42 42 42 44 46 48 49
37 37 39 43 49 45 45 38 33 31 31 31 30 29 26 24 25 26 27 27 27 29 30 32 35 37 38 37 37 36 32 32 30 29 26 22 18 16
44 45 50 50 48 43 33 30 30 30 29 28 27 25 24 24 24 23 22 22 21 20 20 20 19 19 18 18 17 16 15 14 14 14 13 13 13 15
55 57 54 51 39 33 29 27 25 22 21 21 23 24 24 24 23 23 22 22 25 21 20 19 18 17 17 16 16 15 15 15 16 16 16 16 18 19
58 56 46 33 26 21 21 21 21 22 23 25 26 26 26 25 25 24 24 23 24 23 21 21 21 21 21 21 21 21 21 21 19 19 20 22 22 23
47 32 26 24 22 22 23 23 25 27 28 28 29 29 28 28 27 27 27 27 27 27 27 27 29 28 28 26 23 20 20 20 21 21 21 22 23 25
31 28 25 23 24 24 24 27 29 31 33 32 32 31 31 31 31 31 32 32 35 35 33 33 32 29 24 22 22 21 22 23 24 24 24 24 25 27
30 27 25 25 25 26 30 33 35 37 37 37 38 37 36 36 36 35 35 36 37 39 36 34 31 25 24 23 23 24 25 25 26 26 27 27 27 30
29 26 25 26 28 32 35 38 40 41 42 42 42 42 41 41 40 40 41 41 40 39 38 35 29 25 25 24 25 27 28 29 28 28 29 30 31 35
28 27 28 30 33 36 40 42 43 44 45 45 44 45 45 46 47 47 45 44 42 41 41 37 29 27 26 26 27 31 32 33 35 34 35 38 41 45
29 30 32 33 36 40 43 44 46 46 46 47 47 47 48 49 51 51 49 47 46 45 44 37 30 30 30 30 32 35 38 40 40 41 43 49 53 52
32 33 33 35 39 42 43 44 45 46 48 48 48 50 51 53 55 54 53 51 50 49 47 40 34 34 34 35 38 41 46 46 45 45 48 53 58 61
32 31 33 36 39 40 41 42 44 47 48 50 51 52 53 57 59 59 57 56 56 53 49 41 36 36 38 41 43 47 50 51 51 51 54 57 61 63
31 32 33 34 35 36 37 40 42 45 49 53 54 55 57 61 66 65 62 61 59 56 51 44 39 39 41 43 46 49 52 52 51 53 56 58 61 63
32 32 32 33 34 36 38 41 41 44 54 56 57 60 62 67 70 68 67 66 64 56 48 43 41 42 44 45 51 55 54 57 54 55 59 57 47 46
36 36 36 37 38 40 41 42 45 49 60 59 60 64 66 71 76 73 72 71 68 59 50 42 41 44 47 53 59 61 61 56 58 58 54 45 44 46
44 43 43 44 46 47 49 49 50 55 62 63 63 70 74 76 81 79 77 74 69 60 48 43 45 53 61 65 63 63 61 60 58 57 49 47 48 46
55 56 56 56 56 56 56 58 58 59 60 66 69 73 77 83 86 84 81 76 67 54 47 47 51 60 65 65 65 63 61 58 56 53 49 53 51 48
68 68 68 65 61 61 64 62 62 65 65 69 67 73 79 90 87 86 82 77 59 50 50 53 61 67 68 71 69 63 57 54 54 47 52 56 54 53

GFSNE_prec_cthk_090.txt.gz
RH
41 44 45 49 43 44 43 46 48 51 45 38 38 39 40 41 40 39 40 38 39 42 42 44 46 46 47 52 56 60 63 66 69 75 79 80 91 97
40 44 42 46 44 41 44 48 48 42 39 39 42 42 42 40 40 39 39 38 38 39 41 42 41 43 44 46 54 58 63 66 68 68 69 69 79 88
38 40 42 41 39 40 43 43 40 37 40 43 43 44 40 41 36 35 33 33 31 30 32 34 37 38 38 39 46 52 57 61 61 57 57 61 65 70
38 36 35 36 37 38 36 36 38 43 46 45 43 40 41 36 31 30 28 29 30 31 32 33 32 32 35 37 39 46 49 50 49 46 43 43 49 51
42 37 33 32 33 34 38 43 47 49 45 42 38 36 33 32 29 28 28 29 30 30 29 31 33 34 36 37 37 37 41 43 44 44 41 40 40 42
42 39 38 37 38 42 45 50 52 42 34 33 31 32 31 29 26 26 27 28 27 26 26 27 27 29 31 33 35 36 36 35 33 31 31 31 31 28
46 44 44 45 47 50 54 49 38 36 32 30 29 28 26 25 25 25 24 24 22 22 22 20 20 20 19 19 19 19 18 18 18 18 17 17 17 16
53 53 52 56 59 59 47 39 38 32 28 27 25 25 26 25 25 24 24 23 23 23 23 22 21 21 20 20 19 18 18 17 17 16 14 12 13 12
61 61 63 62 58 47 40 29 25 23 23 25 26 27 27 28 26 25 25 25 25 25 25 24 25 24 25 25 24 23 21 18 16 15 16 17 18 18
66 67 66 54 37 28 28 29 25 26 27 28 29 30 31 30 29 28 27 27 28 29 30 30 30 31 30 28 27 23 20 20 20 20 20 21 21 20
58 47 39 34 32 33 30 27 28 29 31 32 33 34 35 34 33 31 30 31 32 32 34 34 34 33 31 30 26 21 22 22 22 23 24 24 24 24
42 38 36 36 35 31 29 29 30 34 35 37 40 41 41 39 38 37 36 36 37 38 38 38 35 34 34 32 25 22 22 22 23 26 27 28 28 28
44 42 39 36 33 31 29 31 35 38 41 43 46 45 44 44 43 43 42 42 43 43 41 40 38 38 37 34 26 24 24 24 24 25 27 31 33 31
45 40 38 36 32 30 32 35 40 42 45 48 49 47 47 47 47 48 48 48 48 47 46 44 43 43 41 38 29 26 27 28 28 30 33 36 38 38
42 39 37 33 32 34 36 40 42 44 46 49 50 49 50 51 51 51 52 53 53 52 51 50 50 49 47 41 35 31 30 32 34 36 38 41 44 46
39 37 35 34 33 37 39 41 43 44 46 47 49 50 50 54 55 55 56 58 58 56 54 54 55 54 51 45 41 36 35 37 37 40 43 45 48 51
38 36 35 37 37 34 36 39 40 41 41 43 45 48 51 55 59 60 62 64 63 60 58 58 59 60 53 46 41 37 37 37 39 43 47 48 51 49
40 39 38 35 33 34 36 36 37 37 38 40 44 46 51 58 63 65 66 69 67 65 64 63 64 62 55 48 42 38 38 39 46 51 49 51 49 50
37 35 34 34 34 35 35 36 37 38 40 42 43 49 58 68 67 69 70 73 73 70 70 68 66 63 57 46 41 40 43 52 55 53 54 53 49 49
42 41 39 39 38 38 39 40 41 43 45 47 51 53 61 70 71 74 78 78 80 77 74 70 67 63 51 42 44 46 55 59 60 57 56 53 47 46
50 48 47 46 46 47 48 49 50 52 56 55 56 60 66 66 71 74 79 83 83 81 77 72 68 58 47 49 50 56 63 61 63 62 55 50 46 44
62 59 58 56 55 56 56 58 61 60 58 60 63 60 60 67 73 74 79 83 84 82 78 73 67 56 54 54 59 66 65 67 66 61 54 51 48 45
73 73 74 70 68 69 70 73 69 67 68 67 66 68 66 69 74 74 80 82 81 77 75 74 69 65 63 63 71 71 66 66 62 53 51 51 49 47

GFSNE_prec_cthk_093.txt.gz
RH
48 48 46 45 45 47 46 52 52 53 52 52 53 42 40 42 41 40 38 39 40 39 40 42 43 44 44 43 47 49 52 57 60 63 62 61 66 69
45 44 46 47 47 43 47 49 50 48 50 52 44 42 44 44 43 40 38 39 37 36 33 34 37 38 41 41 40 45 50 53 57 59 57 61 63 63
44 43 45 48 45 44 47 48 50 47 48 44 44 44 48 45 42 38 33 31 33 32 30 31 32 37 39 39 39 43 48 52 54 55 54 51 49 52
44 43 42 46 46 44 45 43 44 41 39 44 46 47 47 43 42 32 30 29 30 32 32 32 35 35 34 36 38 41 42 47 48 49 49 46 45 41
44 43 42 42 42 42 42 41 40 41 45 47 51 46 41 37 32 30 29 30 31 32 32 31 32 34 35 35 37 38 39 39 40 42 41 40 40 38
43 42 41 41 41 42 44 42 45 48 50 51 40 35 36 36 31 29 28 29 28 27 26 27 27 27 27 29 33 36 37 36 36 36 34 30 31 33
49 48 45 45 46 47 48 50 54 54 46 38 37 36 34 31 27 27 27 27 25 24 23 22 21 20 20 19 18 18 18 18 18 18 18 18 17 15
54 55 54 53 57 57 57 59 59 45 39 38 35 31 27 27 26 26 26 26 25 25 25 23 22 22 22 21 20 20 20 19 19 18 17 14 12 11
63 62 65 65 64 64 66 59 44 42 37 28 30 28 31 28 28 29 29 28 26 26 25 25 25 25 26 26 26 26 25 23 21 18 16 16 16 17
68 70 70 70 69 66 55 39 35 31 30 31 31 34 31 31 33 33 32 31 30 29 29 29 30 30 30 31 30 29 27 26 22 20 20 20 20 20
73 75 73 68 60 43 38 37 35 37 33 34 36 34 35 37 39 38 37 35 34 34 33 33 34 35 34 33 31 30 31 29 23 21 21 21 22 22
65 57 52 48 43 39 39 40 40 36 35 37 37 39 42 44 44 43 42 42 41 39 39 39 38 38 37 36 35 35 34 32 26 22 22 23 23 23
58 53 45 43 41 40 42 40 39 37 37 40 44 44 48 49 49 48 47 48 48 47 46 45 43 42 42 41 40 40 39 35 31 26 25 25 25 25
60 54 48 43 44 45 40 39 37 37 41 45 46 47 50 50 50 50 51 52 53 53 53 51 50 49 48 47 47 47 46 40 35 32 31 30 30 31
59 53 53 47 45 42 40 36 37 42 43 47 48 48 49 51 52 53 53 55 57 57 58 58 56 55 54 53 54 53 51 46 41 37 34 33 33 34
59 56 51 45 41 39 39 40 39 41 46 47 46 45 46 48 49 53 56 58 60 63 64 63 62 60 60 61 61 60 54 50 46 41 36 35 36 39
48 43 42 41 40 39 35 37 44 41 40 42 43 43 43 43 45 51 56 60 65 68 66 66 64 64 64 65 66 62 56 50 44 39 36 39 44 48
49 44 42 41 40 40 43 42 38 38 39 39 39 40 41 42 46 53 60 68 72 73 73 70 68 67 68 69 66 62 56 48 39 38 42 47 53 51
44 39 39 38 37 36 36 36 37 38 38 39 39 41 43 44 49 61 68 77 74 76 79 77 74 73 73 71 68 61 51 39 41 47 50 55 56 56
45 42 42 42 43 43 42 42 42 42 41 42 43 45 49 52 57 59 71 74 72 74 78 79 77 75 74 73 71 58 44 47 52 55 57 57 56 55
58 55 51 49 47 47 48 48 48 48 48 49 53 56 61 59 59 67 69 68 73 76 78 81 77 75 70 69 70 65 52 55 60 64 62 61 58 53
75 74 69 69 65 60 58 58 58 58 59 61 64 68 64 62 66 66 64 70 74 77 76 74 72 72 72 70 71 69 63 64 68 69 69 65 56 49
85 79 78 77 76 76 74 71 69 69 71 75 79 72 67 70 70 69 71 68 74 70 64 70 74 72 73 71 69 70 72 72 72 75 73 62 56 50

GFSNE_prec_cthk_096.txt.gz
RH
53 51 52 51 51 50 53 54 56 56 52 56 55 54 54 51 44 44 43 41 39 36 37 37 39 40 42 42 42 46 54 61 62 63 63 63 62 59
54 53 51 50 50 50 49 55 55 55 53 53 53 50 52 47 45 48 43 41 38 38 34 30 33 35 39 42 44 42 49 52 59 62 62 60 60 54
51 51 50 49 50 49 51 54 55 56 56 50 49 50 47 47 49 48 45 35 30 32 31 29 30 33 38 42 43 41 43 50 53 53 55 53 52 49
54 50 49 47 48 49 48 50 52 53 54 51 49 49 48 51 50 48 41 31 29 30 30 29 32 35 38 39 40 41 44 49 50 50 49 50 48 46
57 53 51 50 49 49 47 47 48 50 48 48 49 50 50 51 47 44 33 32 33 30 31 31 30 32 36 37 36 39 40 43 44 42 41 40 39 37
52 52 50 50 48 47 48 45 44 46 47 50 52 53 52 46 40 36 36 31 29 29 28 27 28 27 27 29 31 35 37 37 37 37 35 35 34 33
47 50 52 53 51 48 48 49 48 49 55 56 56 48 42 39 38 38 32 30 28 25 25 24 23 22 20 20 20 20 21 23 25 26 25 22 20 18
54 56 56 56 57 58 58 56 58 61 63 58 47 40 37 37 36 33 30 30 26 26 27 26 24 23 22 22 21 20 20 20 21 20 19 17 16 14
60 60 60 61 64 65 69 68 68 68 60 44 40 35 38 35 36 32 34 29 30 30 30 28 25 25 25 25 25 26 26 26 24 23 21 20 18 16
63 65 66 69 71 74 74 75 75 60 46 38 37 37 35 39 38 37 34 34 34 33 33 31 29 29 30 30 30 30 30 29 28 27 27 25 21 20
70 72 74 77 75 77 73 64 45 38 38 38 37 40 40 41 40 40 41 40 39 39 38 36 34 34 35 35 34 34 33 32 32 32 32 29 24 21
78 80 80 77 73 67 56 48 44 44 43 42 46 42 44 44 45 48 48 47 47 46 44 43 42 41 40 39 38 38 37 36 36 37 37 33 29 25
73 68 59 56 53 51 47 44 44 43 50 47 43 45 46 49 50 53 52 53 52 51 50 51 50 48 47 45 44 44 43 42 42 43 41 38 34 30
67 68 63 59 52 45 44 43 48 54 50 46 43 46 51 51 52 54 55 55 55 54 55 56 57 56 55 54 53 51 50 49 50 50 46 43 41 38
64 64 62 59 54 45 46 57 54 49 46 42 43 49 51 50 51 53 54 55 56 57 58 59 62 64 63 60 59 57 57 57 57 57 54 49 45 41
69 77 68 63 65 61 56 51 48 42 42 45 48 48 49 50 50 49 50 51 52 54 58 61 64 67 68 67 65 60 61 60 60 62 58 52 46 40
64 80 68 60 57 50 46 45 46 49 48 43 44 47 46 44 45 46 46 47 49 53 59 64 72 73 72 69 67 65 65 64 62 59 56 49 43 34
69 58 53 48 44 43 42 43 41 39 43 48 44 41 42 43 43 42 43 46 52 61 69 73 74 78 77 72 70 68 68 65 62 58 51 42 38 41
54 50 50 48 45 46 46 46 45 43 41 41 41 41 42 42 42 43 45 49 58 70 75 73 73 78 78 76 72 70 66 61 58 56 51 43 46 49
46 42 42 41 41 41 40 40 40 41 43 44 45 46 45 45 45 47 51 57 67 70 77 71 73 77 80 79 77 66 61 62 62 62 55 47 51 60
58 56 54 53 51 49 48 47 48 48 48 48 48 49 50 50 52 56 61 67 65 71 73 69 76 78 77 77 73 69 64 64 64 63 62 56 60 66
73 72 73 69 64 62 62 61 58 58 59 61 61 58 58 59 63 67 72 67 68 71 69 72 77 79 65 64 70 71 70 67 65 66 68 68 72 70
92 92 93 93 91 88 82 79 76 72 70 69 71 73 73 72 75 80 74 69 70 69 72 75 76 67 61 63 69 71 73 76 77 75 74 78 74 69

GFSNE_prec_cthk_099.txt.gz
RH
69 69 64 61 59 58 59 61 66 68 66 63 64 62 57 59 57 52 48 42 44 43 40 40 41 39 40 40 40 39 44 60 68 62 62 62 61 64
69 68 64 62 59 55 58 59 64 63 58 60 64 64 63 58 55 51 47 47 45 44 43 37 33 36 39 42 40 44 47 57 57 59 65 61 62 63
75 74 68 65 58 55 55 58 59 58 61 60 62 60 62 59 52 49 49 48 46 37 37 33 32 33 36 40 41 42 44 50 58 58 60 63 61 57
73 69 68 64 60 56 57 56 55 60 60 64 61 61 59 58 55 55 53 49 41 35 32 33 36 33 36 39 41 41 44 48 47 49 51 51 50 49
60 59 59 63 64 61 60 58 56 57 57 57 58 59 55 55 58 56 52 47 34 33 33 36 32 32 35 39 41 42 42 41 39 44 44 48 47 44
55 53 54 55 57 58 58 57 54 53 53 54 52 51 53 58 56 54 44 38 35 33 37 34 30 29 29 31 35 35 36 37 39 40 39 38 37 35
47 48 51 51 53 54 56 57 56 55 54 53 54 56 60 61 51 46 42 36 33 37 29 26 26 25 24 23 23 25 27 30 34 34 34 32 31 28
51 55 55 55 56 59 60 59 60 61 63 62 62 67 61 50 46 44 39 37 38 31 29 30 27 27 25 24 23 22 21 20 20 20 21 20 19 17
56 57 59 61 61 62 65 66 68 69 70 75 71 62 49 45 42 38 39 40 36 32 35 32 30 29 28 26 26 25 25 24 24 23 23 21 20 20
63 64 65 65 66 70 72 72 74 75 78 76 63 52 42 38 39 44 41 42 40 40 38 36 34 34 32 31 31 30 31 30 29 29 28 27 27 28
68 70 73 74 76 78 78 78 80 79 74 57 44 40 41 42 42 44 43 46 44 44 43 42 40 38 37 37 36 35 36 36 35 34 33 32 33 33
73 76 79 82 83 81 78 75 69 57 48 45 42 42 44 45 46 48 50 49 49 50 50 50 48 45 44 43 42 41 41 40 40 40 39 38 39 38
77 79 76 69 65 64 65 60 56 47 49 50 53 52 54 51 50 51 52 54 56 56 56 54 52 51 51 51 49 49 48 47 48 47 46 46 46 45
69 67 68 66 60 57 55 55 54 55 57 52 54 56 54 53 51 54 55 56 59 60 59 57 56 56 57 56 57 56 55 54 55 54 53 52 51 50
69 67 65 63 64 57 54 47 47 49 53 60 61 57 51 50 53 56 55 54 59 61 58 57 58 60 61 61 62 62 61 61 61 59 58 57 56 55
66 62 64 70 61 62 60 56 51 56 61 59 55 51 50 52 56 53 52 54 56 55 53 52 53 55 60 63 63 63 66 66 64 62 60 59 59 56
68 61 72 78 70 65 65 60 60 61 58 52 49 49 55 52 49 50 50 48 47 49 49 48 53 58 63 71 70 66 65 64 62 63 62 60 56 51
67 60 69 75 65 58 55 51 50 50 50 51 53 52 45 49 51 46 44 44 45 48 48 50 59 63 74 73 76 73 68 64 63 63 62 56 51 50
62 64 66 57 55 56 53 48 45 44 43 43 42 43 48 46 45 44 43 44 44 46 50 54 61 72 76 74 77 77 71 67 66 62 59 58 56 52
56 53 50 49 47 48 47 45 46 47 48 47 46 45 45 44 44 43 46 47 48 49 53 60 69 75 78 75 77 77 75 71 64 59 59 61 61 58
69 61 56 54 52 50 48 47 46 46 46 47 47 49 51 52 51 51 51 54 56 55 57 67 69 72 78 75 78 79 76 69 61 61 60 60 61 63
83 80 70 67 68 69 67 65 64 63 60 57 55 54 55 56 60 62 61 60 59 60 67 76 67 71 76 74 79 82 73 61 61 63 65 66 66 68
81 81 82 84 87 79 85 89 88 82 77 78 79 75 73 76 73 72 71 69 69 71 76 77 71 70 73 75 82 81 63 60 64 68 71 68 69 70

GFSNE_prec_cthk_102.txt.gz
RH
50 54 56 62 63 63 65 64 64 66 65 66 66 69 70 64 72 66 64 55 53 43 43 42 42 44 42 39 40 39 40 46 60 70 76 67 60 58
59 57 64 70 70 68 67 67 63 63 65 62 68 68 62 65 68 70 65 61 53 50 48 46 45 37 40 43 46 45 45 53 62 65 63 59 60 57
62 65 68 70 73 74 69 67 68 66 64 61 64 60 67 67 66 67 67 60 59 56 52 44 38 33 38 43 44 50 49 57 60 69 71 58 62 60
67 65 68 66 63 61 63 69 70 70 64 64 64 69 68 67 65 63 61 63 62 59 49 38 39 33 33 42 42 46 52 51 54 60 57 61 57 59
68 68 64 63 59 56 56 56 61 64 64 64 63 63 63 61 60 56 57 61 64 57 41 36 35 33 36 41 42 45 47 43 47 49 50 48 48 48
66 63 60 54 52 53 53 55 55 56 57 60 61 59 59 58 57 59 60 61 60 41 37 36 35 37 36 38 44 45 44 41 40 41 39 39 39 39
58 56 49 48 51 52 52 54 56 57 58 59 60 59 58 60 63 62 65 54 46 41 38 36 34 34 29 31 34 38 38 37 37 38 39 37 36 36
50 51 51 54 53 54 56 58 59 60 61 62 63 64 65 69 69 63 56 50 48 41 39 35 37 31 32 30 27 25 24 25 27 30 32 33 32 29
53 55 58 58 59 60 59 60 62 62 64 67 69 71 76 74 65 54 53 50 42 38 35 41 35 36 36 34 30 28 26 25 25 24 23 23 22 22
57 57 57 60 62 66 69 70 70 70 73 74 75 78 74 65 54 55 48 46 40 40 43 40 42 42 40 38 36 33 32 31 30 30 29 29 28 27
58 58 63 66 68 71 72 74 76 79 81 82 83 79 63 50 46 45 42 42 46 48 50 50 47 46 45 43 41 39 38 37 36 36 36 35 34 33
60 61 66 70 74 76 76 77 79 77 72 66 59 48 45 48 47 47 50 52 52 54 54 55 55 53 52 50 48 46 45 43 43 42 42 41 40 40
65 65 68 73 71 67 65 67 68 65 61 54 50 50 52 49 49 52 56 59 58 57 60 62 61 59 58 56 55 54 53 52 50 49 49 49 48 48
66 60 59 63 63 61 56 53 54 54 56 53 49 55 56 58 64 61 58 56 57 61 64 65 65 63 61 61 61 60 59 59 58 56 55 55 54 53
69 66 64 62 61 59 57 60 57 57 58 58 61 62 62 66 63 59 54 55 64 62 59 64 65 62 61 61 62 64 64 65 64 61 60 60 59 57
74 69 64 61 59 61 67 62 54 48 46 48 56 63 62 63 57 52 54 61 59 56 57 59 58 57 57 55 59 58 60 64 66 66 65 63 62 59
79 75 71 66 70 77 63 59 61 59 56 59 63 63 62 55 52 56 61 57 51 53 54 51 50 50 51 55 59 58 68 71 71 71 68 64 61 60
84 77 68 64 70 70 69 63 65 60 59 60 60 57 55 56 57 58 52 48 53 51 46 46 48 48 51 57 58 67 73 75 74 72 69 66 61 60
83 66 59 59 63 63 66 66 60 56 53 54 54 54 54 54 52 47 48 53 48 44 46 47 48 51 53 57 63 75 75 74 76 73 70 68 66 56
85 60 52 53 59 62 62 58 55 55 52 47 46 46 48 50 53 52 49 48 48 48 48 48 50 52 57 61 69 78 76 73 75 76 74 72 64 56
91 81 66 58 53 54 54 54 55 54 52 51 50 47 47 49 49 46 46 47 48 52 55 55 55 57 63 65 74 77 77 75 75 77 78 73 59 58
82 79 81 81 76 65 58 58 60 63 66 64 60 59 58 56 55 57 60 60 59 57 56 58 59 62 63 67 79 76 78 77 75 79 79 68 59 60
75 77 78 79 82 83 83 83 75 71 73 73 74 79 78 77 74 73 69 66 67 71 78 75 70 67 67 75 81 78 78 80 80 81 82 67 58 63

GFSNE_prec_cthk_105.txt.gz
RH
60 60 58 55 53 52 54 57 60 64 65 65 71 67 66 69 70 66 66 67 70 66 63 50 47 46 46 43 44 39 36 38 39 43 57 69 91 77
55 51 55 55 54 54 58 59 63 68 73 73 72 71 68 68 66 63 68 66 66 65 64 57 56 53 45 52 49 44 41 48 51 57 68 74 76 65
55 54 54 56 58 61 61 65 64 63 64 68 71 74 71 70 65 67 69 68 65 63 60 60 59 53 45 46 51 48 49 48 54 60 67 70 66 62
56 57 58 60 63 64 64 62 61 62 60 58 62 67 71 69 69 69 68 66 63 59 61 63 50 45 41 47 49 52 53 56 57 57 64 71 72 70
61 63 61 62 63 61 60 59 57 56 56 55 55 59 61 63 63 65 62 61 57 60 59 54 46 43 41 43 46 49 54 58 67 72 66 65 64 62
58 57 58 56 53 53 54 51 49 49 50 52 56 58 60 61 61 61 60 58 62 64 62 47 39 36 35 39 45 46 52 56 54 53 54 53 52 49
48 45 43 43 45 47 49 50 51 51 52 55 58 61 63 62 61 62 63 67 67 68 56 41 37 35 36 34 48 51 49 50 46 46 45 44 43 39
41 43 45 47 51 53 53 54 55 55 56 57 61 63 64 65 66 68 72 73 69 56 46 40 40 39 34 39 33 34 43 44 42 38 36 36 37 37
43 45 49 51 51 51 52 54 56 58 62 65 66 68 69 71 72 74 74 67 60 50 45 49 43 37 40 37 34 38 34 32 30 27 28 30 32 32
50 52 53 54 54 55 58 59 62 65 68 70 72 74 78 80 80 73 63 57 54 54 49 40 38 42 42 38 45 41 38 35 33 29 28 27 27 26
55 56 56 56 58 60 62 65 67 70 72 75 79 83 85 84 74 58 51 59 55 48 47 43 44 47 49 52 48 46 44 42 40 37 35 34 34 34
59 57 59 61 62 64 66 68 71 72 72 73 76 78 76 60 54 48 50 49 49 49 52 53 62 60 57 56 54 53 51 48 46 44 43 42 41 40
62 63 64 66 66 65 63 60 62 64 65 63 57 54 50 45 47 50 53 52 54 57 63 65 61 65 66 64 62 60 58 55 54 53 52 50 48 48
68 68 64 62 59 57 56 55 51 47 51 52 51 52 51 51 53 55 57 58 59 61 60 60 69 70 67 67 66 64 63 63 62 61 59 57 55 55
78 72 68 64 60 57 55 55 50 46 46 50 54 54 55 58 59 66 64 62 64 59 61 70 67 73 77 71 66 66 66 68 67 66 64 62 59 58
82 79 72 67 61 59 54 56 59 59 54 57 59 60 60 60 64 69 68 61 55 56 62 67 63 62 63 64 64 65 65 62 60 63 64 65 64 64
87 84 78 69 66 62 67 69 66 66 58 54 49 51 56 63 65 64 62 52 53 58 63 56 56 58 57 54 54 55 57 57 57 67 72 72 70 69
91 88 85 74 64 62 67 73 64 61 61 60 59 61 62 64 64 61 53 54 59 63 55 53 53 54 51 50 49 52 56 57 59 72 78 78 73 71
95 93 86 68 61 60 65 65 66 68 65 62 60 60 59 60 59 57 57 60 59 52 49 52 54 48 49 51 52 54 58 60 67 77 78 79 77 72
96 95 82 65 58 57 59 58 59 62 65 66 65 62 60 59 58 53 52 51 50 50 51 50 49 47 46 50 54 55 60 65 73 78 78 78 79 76
90 93 92 84 68 60 52 47 46 46 49 55 57 55 48 47 48 50 51 52 52 52 49 48 47 48 51 55 60 61 63 66 74 80 80 78 77 80
80 82 84 85 82 78 78 74 66 58 54 55 54 52 50 53 60 60 56 53 55 56 56 56 59 59 61 61 61 62 66 70 74 79 81 82 78 81
72 77 79 79 80 80 80 79 79 82 85 83 71 66 72 76 75 77 80 82 81 75 70 68 66 63 65 67 73 74 72 72 75 82 79 83 83 84

GFSNE_prec_cthk_108.txt.gz
RH
68 62 62 60 59 52 52 52 53 54 55 57 60 60 67 73 78 74 77 74 70 67 67 66 64 56 55 51 51 47 42 37 35 37 56 77 85 85
64 66 63 60 53 53 53 52 55 57 59 60 62 59 62 69 77 73 72 72 69 70 67 63 64 59 60 60 63 51 44 46 42 42 56 71 86 76
55 52 51 52 52 54 56 57 59 59 61 61 63 62 61 63 63 67 72 74 72 71 69 68 63 61 60 59 64 62 54 54 58 51 57 63 68 80
51 50 53 55 59 58 60 58 59 58 59 60 59 57 56 56 57 57 63 64 67 67 64 61 59 57 55 55 61 59 56 59 57 62 67 71 73 74
54 54 55 56 56 53 53 53 49 49 47 46 46 49 51 52 56 58 62 65 65 65 61 59 60 54 48 45 54 70 73 75 66 73 74 70 65 71
54 51 48 47 44 43 41 42 44 45 46 48 48 49 52 55 59 61 62 65 65 63 62 66 65 52 45 40 47 57 62 62 58 60 68 73 82 76
47 45 43 41 40 41 44 47 48 50 50 50 51 52 55 59 60 62 63 63 64 65 70 71 63 49 41 37 40 46 53 58 65 70 77 68 64 62
46 45 43 41 44 43 48 48 47 48 49 50 52 56 60 62 63 65 66 67 69 72 76 71 54 41 36 33 33 40 51 61 60 60 60 60 55 52
47 47 48 48 50 48 50 50 48 51 54 53 55 59 64 67 68 70 73 75 75 74 65 52 45 40 43 43 42 42 44 41 45 50 47 45 39 37
49 50 53 56 54 53 53 52 53 55 57 59 61 63 68 71 74 78 80 78 73 65 59 46 43 48 52 44 38 41 35 34 40 36 34 33 29 30
55 55 58 59 57 56 55 58 58 59 61 64 65 68 71 75 78 82 79 71 61 59 54 52 52 51 43 39 42 43 46 50 46 41 40 38 33 31
64 63 63 62 60 59 61 61 62 61 62 65 67 71 75 80 80 79 61 56 54 55 52 49 46 50 56 54 56 56 55 53 51 49 47 46 44 40
64 64 65 65 64 63 64 65 62 58 59 60 61 58 58 61 57 52 48 49 49 50 47 52 55 60 61 66 67 64 63 60 58 55 53 51 48 47
69 70 68 65 66 64 60 58 54 49 46 48 52 51 50 48 46 47 49 49 51 54 57 61 62 64 69 73 69 68 66 66 65 63 60 58 56 56
72 75 73 68 66 65 61 56 54 50 46 44 48 50 50 51 51 54 56 59 59 58 59 62 62 66 72 82 82 77 71 70 70 69 68 67 64 62
77 80 81 76 72 65 59 58 54 51 53 56 57 54 55 57 58 60 63 67 66 68 67 61 64 72 69 70 69 71 72 71 70 68 65 62 62 62
79 82 84 85 76 68 62 60 61 60 63 63 56 57 59 60 62 64 66 73 73 65 58 57 59 65 61 60 61 61 58 57 61 61 59 60 62 65
82 84 87 89 84 75 66 60 65 65 59 59 61 59 53 52 55 60 66 65 67 61 56 56 60 59 55 57 58 55 54 54 57 57 57 60 64 70
89 90 91 92 85 72 62 59 65 66 66 61 60 60 60 60 64 64 67 66 61 56 55 57 61 58 54 53 55 54 53 54 56 57 58 62 68 73
94 92 92 91 81 66 60 58 58 60 59 62 62 62 62 60 60 60 60 61 58 55 56 55 52 50 47 47 50 50 52 55 56 58 60 65 71 74
87 86 87 87 86 77 66 62 57 51 48 50 50 50 51 53 55 56 55 54 55 56 55 52 52 53 55 56 52 49 48 50 53 59 66 70 72 75
86 82 80 80 80 81 82 82 81 74 67 59 52 47 44 44 46 48 50 52 53 56 56 55 55 53 57 59 57 57 61 62 62 64 66 70 76 79
86 86 83 77 74 79 80 80 81 81 81 81 80 81 82 76 70 70 72 76 78 75 78 81 81 75 66 64 70 73 68 67 63 63 72 74 76 81

GFSNE_prec_cthk_111.txt.gz
RH
73 73 71 68 64 59 57 57 53 54 51 54 57 61 57 56 58 58 61 69 74 77 73 70 71 67 65 59 58 62 57 50 47 45 40 48 63 80
66 64 59 56 55 56 56 52 51 54 56 57 58 57 58 58 60 60 63 62 65 70 75 74 73 71 66 62 65 68 62 57 54 44 47 55 66 86
57 61 59 56 51 50 49 54 56 59 60 59 56 53 52 51 50 53 51 52 54 58 63 64 64 59 57 56 65 70 62 66 54 52 58 74 79 95
63 58 51 50 51 50 51 53 57 53 51 47 42 41 42 42 49 50 51 53 55 61 64 64 58 56 55 54 56 65 67 77 75 71 72 77 70 82
51 53 50 49 49 50 48 46 46 44 45 43 42 43 44 47 50 52 52 54 57 62 64 61 57 58 54 54 54 64 65 66 71 73 83 78 77 76
53 49 48 46 45 45 41 39 39 41 45 46 48 46 45 49 50 52 53 57 60 63 63 60 59 63 58 55 51 67 69 75 84 76 88 85 90 79
49 45 45 45 44 41 39 39 41 42 45 47 47 46 47 51 52 55 57 58 61 62 63 62 65 66 58 52 48 55 70 78 80 97 93 97 93 78
48 46 46 44 42 42 43 45 46 45 47 48 46 46 50 55 55 58 61 62 64 65 67 69 71 64 54 45 42 43 52 64 63 59 66 70 79 89
49 47 43 42 43 45 48 51 52 51 51 50 51 52 59 58 60 61 64 66 69 73 74 74 69 56 46 40 35 34 41 49 52 57 67 78 81 75
50 48 45 48 51 53 55 54 57 54 53 54 56 57 60 61 64 65 67 71 74 76 75 69 57 45 42 43 43 46 48 43 50 53 52 51 51 46
51 48 54 56 57 56 57 61 59 57 59 58 59 60 63 65 67 69 73 77 75 71 66 61 54 47 46 47 47 50 48 41 45 38 39 39 36 36
56 57 60 61 63 62 60 63 63 62 63 61 61 64 67 69 72 75 78 76 64 60 55 56 50 48 48 48 49 49 44 41 50 48 51 49 44 42
63 68 66 65 67 64 64 66 68 67 63 59 61 63 59 59 70 76 72 61 55 54 49 49 49 47 50 55 57 61 60 59 60 59 58 56 54 51
76 75 70 71 74 69 65 63 59 58 57 53 49 50 51 49 49 48 47 46 49 52 51 49 51 58 61 62 67 72 75 74 71 69 66 62 60 57
83 84 81 79 68 61 61 59 58 57 58 53 49 46 47 49 49 49 48 48 52 53 52 56 60 61 63 66 75 76 73 72 72 72 70 68 66 64
92 90 85 78 73 68 66 63 60 59 55 53 52 51 54 53 54 54 52 55 60 63 62 62 64 64 63 65 75 79 77 77 75 74 72 73 72 69
92 88 78 76 75 75 72 68 64 59 57 60 62 58 56 57 58 59 60 63 66 69 68 68 68 64 62 68 69 63 67 65 63 62 65 68 67 64
87 77 78 80 80 83 80 76 71 66 67 65 61 63 60 56 56 58 59 62 67 71 70 69 61 59 58 60 62 58 58 61 60 57 57 60 60 59
82 80 84 85 86 89 87 79 69 65 68 67 63 60 59 60 60 54 56 58 60 67 67 68 63 61 59 60 59 55 56 57 60 58 58 60 59 58
87 87 88 89 90 92 85 70 64 59 59 62 62 64 65 63 64 60 58 63 67 64 63 62 58 56 55 56 56 54 52 51 52 55 53 54 58 60
92 90 86 84 84 85 86 79 69 63 59 57 57 55 53 51 53 55 56 55 55 56 58 59 57 57 57 57 54 54 53 52 53 54 55 55 57 59
89 87 86 85 83 82 82 80 81 80 79 78 76 70 58 50 47 45 45 46 46 47 48 48 47 47 51 54 55 56 57 57 57 56 55 56 60 67
91 89 88 87 86 84 82 78 75 79 83 82 82 83 83 83 83 82 78 72 71 71 72 73 72 69 67 68 75 78 73 65 64 62 70 73 70 66

GFSNE_prec_cthk_114.txt.gz
RH
79 76 79 83 73 65 58 52 50 51 51 49 50 53 54 54 52 53 52 54 51 53 52 52 58 60 61 58 61 60 57 52 54 53 48 45 48 68
71 76 73 67 61 53 53 53 52 49 49 52 52 52 53 49 44 41 40 43 46 48 50 52 51 54 54 52 49 51 55 58 62 59 52 57 59 56
77 71 67 61 58 58 55 50 48 49 50 52 49 45 42 41 38 38 41 46 46 48 50 51 53 55 53 50 47 52 54 54 59 62 68 59 62 72
71 67 64 64 60 54 52 49 50 50 46 43 40 40 41 43 42 42 44 47 46 49 51 53 57 53 53 49 47 54 58 57 57 59 66 64 70 88
68 73 66 57 54 51 48 48 46 43 40 37 40 43 42 43 45 46 48 49 47 48 52 55 56 52 55 51 51 61 62 64 66 74 78 87 88 94
77 60 59 56 50 47 45 43 42 40 37 39 41 42 45 44 45 49 50 50 51 52 54 57 56 55 59 54 53 62 69 70 71 75 81 90 92 90
66 59 55 49 47 46 44 42 40 38 39 42 43 44 44 45 46 51 52 53 54 55 58 62 58 59 64 57 53 58 67 76 73 75 77 88 93 94
60 58 53 48 46 45 44 42 42 44 44 47 49 46 48 48 50 54 55 56 58 59 62 63 64 67 69 57 49 49 64 76 84 91 93 95 94 98
60 56 52 49 46 46 44 47 48 51 51 50 50 51 51 55 55 54 56 59 61 64 68 69 70 73 68 53 44 41 43 57 73 80 76 87 85 79
59 54 51 49 46 46 49 53 53 53 55 56 57 56 54 57 58 60 62 64 69 69 73 73 72 66 51 43 41 40 38 40 42 60 62 61 64 70
59 55 51 49 49 49 50 54 57 58 59 60 59 62 60 57 61 65 64 69 74 76 76 69 64 59 50 42 42 45 45 43 44 46 45 55 56 58
58 56 53 50 50 54 55 57 64 62 61 61 62 65 63 66 68 71 71 76 79 76 65 61 57 56 46 46 46 47 48 48 49 49 46 46 41 39
60 58 57 57 58 60 61 63 65 65 65 65 61 61 63 65 66 71 76 80 78 67 55 47 51 53 52 51 48 48 49 48 47 45 47 52 51 49
65 66 66 66 65 68 67 66 65 65 60 55 55 55 55 55 54 52 53 54 54 54 55 55 49 50 51 54 60 65 66 68 67 63 60 61 64 62
76 77 74 74 77 74 68 65 61 61 61 58 55 54 52 50 50 50 50 51 52 51 53 54 52 55 62 65 64 69 71 69 69 71 72 71 70 70
83 80 84 85 84 80 76 65 63 62 62 60 58 55 54 53 53 53 55 55 53 53 56 57 57 60 64 66 67 71 76 78 75 75 77 77 76 76
89 90 87 88 83 78 74 72 67 65 64 61 61 61 61 62 60 58 59 60 59 61 64 65 69 71 72 72 70 70 74 73 74 70 68 74 79 77
95 94 90 86 81 76 79 81 78 73 69 70 71 69 65 66 60 58 60 63 63 64 68 72 73 72 70 67 65 65 66 66 59 63 63 60 60 61
96 92 91 85 81 82 84 87 86 78 71 68 73 69 63 62 63 62 59 56 56 60 62 68 75 74 72 63 61 62 62 63 59 58 59 61 61 61
94 88 86 85 85 87 88 91 88 74 70 66 64 67 66 68 66 62 61 61 59 61 65 66 74 74 70 61 63 62 62 60 60 61 58 55 57 58
91 91 90 91 90 90 89 89 90 84 74 65 60 56 58 60 60 59 58 57 57 57 57 55 52 54 57 62 64 61 56 56 56 54 53 53 53 56
97 97 95 92 90 89 89 89 89 90 90 87 79 77 75 69 63 59 54 51 50 49 49 48 48 47 48 50 51 49 50 52 54 57 59 60 59 59
98 97 96 94 93 91 90 90 87 85 83 79 77 81 85 88 88 86 86 86 86 83 76 74 71 70 71 71 72 71 66 67 69 66 67 64 61 62

GFSNE_prec_cthk_117.txt.gz
RH
95 92 90 85 81 83 78 76 64 55 53 53 51 46 47 48 48 45 42 38 39 40 42 42 43 44 45 46 46 44 43 41 44 51 51 56 57 56
92 91 92 80 83 80 71 62 50 54 55 50 48 48 49 49 42 39 36 38 38 39 41 42 44 45 45 47 43 41 40 39 43 45 51 56 51 53
92 85 79 81 79 70 60 57 56 52 49 47 47 48 43 40 39 40 39 41 43 43 43 40 44 45 47 46 44 43 47 39 45 46 45 50 59 64
87 77 77 77 73 63 68 64 55 48 45 46 44 42 38 39 40 40 41 42 44 43 43 43 44 46 46 44 44 45 50 49 49 51 47 54 57 70
82 77 78 77 74 69 61 56 49 44 44 43 40 38 37 40 42 43 45 44 43 46 43 46 48 48 49 47 44 48 60 59 60 60 55 60 66 80
82 76 73 76 65 58 55 48 44 42 42 40 38 37 39 43 43 46 48 49 49 48 47 47 51 50 51 53 49 51 63 66 70 70 72 73 82 93
80 76 73 67 68 57 50 43 41 41 41 40 40 42 46 48 48 51 50 52 53 53 52 54 53 51 54 57 53 53 64 67 80 80 79 86 91 92
70 73 75 70 64 54 47 45 42 40 40 43 44 46 48 48 49 52 54 53 56 56 55 58 57 56 58 63 58 52 59 75 81 82 78 85 95 99
78 76 73 68 61 52 47 44 43 44 47 48 50 50 50 51 52 54 56 57 58 58 60 61 61 61 66 66 60 51 47 59 81 81 96 94 93 95
73 74 69 63 55 50 48 47 47 48 48 50 52 54 54 55 58 58 58 57 58 62 65 68 66 66 66 61 52 47 40 42 54 74 83 96 87 90
67 63 62 60 55 53 49 48 49 50 51 52 54 57 58 60 60 60 61 63 67 70 74 72 66 64 61 53 44 41 38 39 38 39 57 70 74 71
66 65 63 60 57 54 52 52 54 55 57 58 60 61 63 63 65 66 65 67 74 74 76 65 60 57 50 41 44 44 45 47 49 47 44 46 50 54
68 65 61 61 59 57 57 59 60 61 61 64 60 62 61 60 60 61 66 72 77 76 73 58 48 47 50 48 49 50 50 51 52 51 50 51 51 47
71 70 66 68 65 65 65 66 66 66 66 63 58 57 54 50 50 53 50 52 58 58 54 53 54 51 51 52 54 54 53 56 60 60 57 54 50 49
78 75 76 75 76 77 73 71 68 65 65 62 59 58 55 52 50 50 51 51 49 49 49 50 52 52 51 52 60 67 71 71 72 72 70 68 67 64
80 84 85 84 80 79 82 78 74 68 67 62 59 55 55 54 53 53 53 54 52 50 51 50 52 53 54 61 68 69 73 75 74 75 74 75 77 77
84 84 87 89 89 89 87 86 81 68 63 62 60 55 56 58 62 59 59 58 55 55 57 57 60 60 64 66 70 72 73 78 79 79 79 76 80 85
86 90 94 94 95 93 89 84 85 76 71 68 68 67 65 66 65 61 60 60 59 60 62 63 65 69 76 77 75 75 74 72 77 74 68 69 67 64
92 97 98 98 96 94 88 84 84 86 80 77 70 67 69 63 61 62 62 60 56 59 63 66 67 72 73 75 76 68 67 66 65 67 70 61 63 68
98 98 98 98 98 93 88 88 88 90 81 73 69 65 66 69 66 63 63 61 59 56 57 58 57 60 68 75 81 77 70 67 65 64 67 65 62 62
98 98 98 98 97 93 92 92 91 88 83 73 64 60 59 60 59 58 60 61 62 61 58 58 56 59 61 62 61 61 61 63 62 59 57 57 57 55
98 98 98 97 96 93 92 90 87 86 85 85 84 77 70 68 64 61 59 58 58 57 57 56 54 52 52 52 53 51 48 45 45 47 55 60 62 61
98 98 98 97 96 94 93 92 92 90 89 88 88 85 81 77 77 81 84 89 90 89 89 88 82 72 67 67 69 70 70 70 67 63 65 65 61 57

GFSNE_prec_cthk_120.txt.gz
RH
87 85 89 89 95 95 96 92 93 91 76 69 51 55 49 46 44 42 39 36 33 34 37 38 37 36 36 39 39 39 38 36 32 32 33 39 41 49
91 92 92 86 95 96 96 93 87 82 70 54 55 51 49 45 44 40 35 34 34 37 37 37 37 36 36 41 41 41 38 37 36 35 38 37 39 50
94 95 91 90 94 94 90 86 81 67 61 56 53 50 46 44 41 37 35 34 35 37 37 37 38 38 39 41 42 40 39 42 37 38 41 41 42 45
98 93 92 91 90 84 84 80 69 64 63 59 51 46 43 39 36 34 35 36 36 40 39 38 40 42 43 44 44 41 42 46 44 44 45 42 43 44
93 94 89 88 83 84 80 73 71 63 55 48 43 42 39 38 36 35 37 37 40 43 43 43 45 45 45 45 42 42 46 50 55 51 53 50 46 49
94 93 93 91 88 81 79 82 68 56 47 43 41 39 37 37 38 40 41 41 43 45 47 48 48 48 48 48 47 46 48 56 59 59 67 61 59 61
90 90 87 91 84 81 77 69 62 59 51 44 41 39 41 41 44 44 43 44 45 45 48 50 50 52 51 51 51 48 49 59 69 72 82 77 76 78
82 81 83 81 83 77 76 72 66 59 51 44 42 42 44 46 46 46 46 45 50 52 52 53 54 54 53 53 57 53 50 64 69 79 83 76 78 90
80 82 80 80 76 82 77 72 63 55 51 49 47 49 48 47 47 47 48 50 50 52 55 56 57 57 58 61 59 54 49 55 73 83 86 77 86 87
79 78 81 91 90 80 74 67 59 55 52 50 50 51 50 49 49 50 49 53 55 57 59 60 60 61 64 65 60 49 47 47 55 75 81 91 93 88
82 85 91 87 76 71 70 64 58 54 53 53 52 53 54 53 54 55 55 57 59 62 66 65 63 62 61 61 53 42 39 40 40 44 64 75 94 97
81 82 79 73 70 66 68 65 60 57 55 56 57 56 57 57 58 60 63 65 66 68 70 69 59 58 55 43 40 38 37 40 41 40 42 46 56 65
81 81 77 74 74 72 72 69 64 60 58 58 58 57 56 58 59 58 62 70 70 69 71 74 60 48 44 45 40 40 42 46 48 48 48 48 48 50
82 80 78 78 77 73 68 69 66 64 64 62 63 62 58 55 56 53 50 51 52 58 60 59 53 52 46 43 43 46 50 53 53 53 51 50 48 45
80 82 82 80 79 76 73 74 72 69 72 70 64 62 59 57 56 50 46 47 44 49 49 49 49 50 48 45 48 51 58 63 67 68 69 68 64 60
86 84 84 84 84 81 86 85 81 76 76 73 69 62 58 56 53 48 47 45 48 52 54 51 50 49 48 49 49 54 64 73 72 71 69 70 72 73
90 88 86 84 85 85 86 87 86 86 82 76 73 63 56 55 52 50 51 52 55 56 57 54 53 53 52 51 54 60 68 71 76 80 79 78 78 78
90 87 85 85 88 89 95 96 92 89 88 78 70 66 65 62 60 57 59 59 59 59 58 57 59 59 59 60 67 73 80 78 74 76 77 79 74 73
87 89 89 91 90 94 96 97 97 93 90 82 75 69 68 67 63 63 61 61 58 57 59 61 62 63 64 68 75 73 72 70 67 68 70 73 73 68
97 97 96 97 97 98 98 98 97 94 91 88 78 72 68 65 66 61 59 58 58 59 59 56 57 62 64 69 71 72 75 76 69 67 66 65 66 70
98 98 99 99 99 98 98 98 97 94 92 88 74 66 62 60 57 58 60 59 60 60 59 57 59 59 58 61 63 65 66 68 66 61 63 66 65 63
98 98 98 98 98 98 98 98 97 96 95 93 87 80 72 63 57 55 55 55 58 58 56 56 58 59 61 61 57 53 49 49 49 48 49 49 51 56
98 98 98 98 98 98 98 98 97 96 95 92 87 86 86 85 81 80 80 77 75 76 79 81 79 73 71 68 67 66 65 64 60 60 64 65 64 63

GFSNE_prec_cthk_123.txt.gz
RH
88 81 76 82 83 85 89 91 97 94 93 92 93 88 69 62 51 46 41 39 35 32 31 31 34 33 33 33 34 33 32 32 29 29 30 30 31 31
89 83 83 86 87 91 91 94 97 95 96 97 86 73 64 60 51 45 41 37 34 32 33 34 35 34 35 33 34 35 33 32 32 31 31 30 30 32
91 90 89 91 93 94 91 90 96 97 96 94 76 72 67 58 52 47 40 34 31 32 33 34 36 36 35 37 37 37 35 34 38 35 35 32 33 35
91 91 92 93 99 98 98 93 97 95 88 79 75 72 66 55 46 40 36 33 32 33 35 37 38 39 39 38 39 41 39 42 42 38 39 37 36 36
94 92 94 94 95 97 96 97 97 90 81 81 78 66 53 45 41 37 36 35 36 37 41 41 41 40 42 43 43 43 41 46 46 44 47 43 44 42
96 96 98 94 94 95 98 97 92 85 84 86 73 59 53 46 40 39 40 40 41 43 42 43 41 43 45 48 50 47 44 49 54 56 56 54 55 54
95 98 98 96 99 98 98 94 90 82 80 72 64 57 52 46 43 44 46 44 44 44 43 43 45 47 47 49 50 49 49 53 63 67 66 70 69 69
97 93 94 95 96 97 94 87 82 81 78 73 65 58 52 48 50 51 49 45 44 46 45 45 46 47 49 51 52 55 51 52 66 72 71 71 72 78
89 87 87 89 91 89 90 82 82 77 80 71 63 59 55 53 54 50 46 46 46 47 47 49 49 51 53 55 56 55 49 50 65 72 79 82 83 77
87 86 83 87 93 90 84 84 87 86 81 70 63 58 56 55 51 49 49 50 51 53 52 52 53 55 57 58 59 56 47 48 56 72 82 83 87 88
86 87 88 87 83 84 91 91 85 81 77 67 61 59 56 54 54 54 55 55 55 56 56 58 59 61 57 56 57 53 42 42 41 52 72 78 90 91
85 86 91 95 95 95 92 84 81 76 73 66 59 58 59 59 58 58 58 58 59 62 63 66 65 60 51 47 45 42 36 37 36 34 42 58 69 86
91 92 90 91 94 90 85 81 75 74 72 69 67 65 63 62 61 61 59 60 63 66 65 72 68 63 48 48 45 41 39 38 38 39 42 49 55 59
89 92 93 91 89 90 85 83 80 78 74 71 69 67 67 66 63 60 56 54 55 60 60 59 60 55 53 46 44 43 42 43 44 45 48 49 51 53
93 93 93 93 91 89 88 86 83 83 79 79 76 75 69 64 63 60 56 52 50 48 46 49 50 48 51 49 45 46 48 48 51 56 61 63 61 59
96 96 95 94 95 92 90 86 87 85 83 85 80 76 73 70 66 59 54 53 49 47 47 49 49 50 51 51 47 47 52 58 65 66 68 67 67 68
97 95 96 94 95 93 93 91 88 86 91 87 83 80 76 71 67 58 54 52 51 50 50 51 51 52 54 54 51 53 53 60 68 73 75 75 74 73
95 93 94 96 95 94 93 88 90 92 91 92 89 82 77 69 64 60 58 57 57 55 55 57 57 56 59 57 57 58 60 64 68 70 73 77 78 79
92 90 91 94 95 95 94 96 92 93 96 96 93 85 78 73 70 68 65 61 60 58 57 58 59 60 62 65 63 64 71 72 71 71 71 73 73 76
91 92 95 96 97 96 94 93 95 96 97 98 98 91 83 76 70 67 64 60 58 58 58 59 60 63 65 66 67 67 70 71 74 75 72 68 67 68
98 98 99 98 98 99 98 98 98 98 98 98 97 96 85 77 70 67 68 63 59 56 55 56 59 58 57 56 56 57 62 64 67 70 72 71 67 66
98 98 98 98 98 98 98 98 98 98 98 98 97 89 78 73 69 64 61 58 55 57 59 60 61 61 62 62 59 57 55 57 57 55 53 53 53 52
98 98 98 98 98 98 98 98 98 98 98 97 98 95 90 89 86 76 66 62 61 60 58 58 58 58 60 62 64 63 60 60 58 60 61 62 64 67

GFSNE_prec_cthk_126.txt.gz
RH
87 90 92 92 88 89 86 88 88 87 86 89 90 96 95 95 89 82 70 62 50 39 32 29 30 31 32 32 30 30 29 28 27 27 27 29 30 28
89 88 88 89 91 88 91 89 89 89 93 94 97 99 97 94 84 77 67 58 45 35 32 31 32 32 33 33 34 33 31 30 30 30 32 32 30 31
92 92 94 93 91 87 91 92 94 95 94 93 94 97 97 84 82 73 65 52 42 37 35 34 33 36 36 36 35 35 32 31 34 36 34 36 33 33
93 91 90 91 91 91 95 93 95 92 99 95 97 97 85 81 78 71 59 53 47 38 39 35 36 38 38 37 35 36 36 34 38 41 39 38 39 35
92 96 93 94 96 96 95 92 99 97 98 98 97 87 84 86 80 69 58 47 45 41 37 38 39 41 40 38 38 39 38 38 43 46 46 47 45 41
97 98 97 97 96 97 96 96 98 98 98 97 89 88 86 81 72 63 55 51 48 43 43 46 46 45 43 41 41 41 41 41 47 49 54 56 57 53
98 96 95 95 96 97 98 97 98 98 96 89 90 85 80 76 67 58 54 53 50 50 51 48 48 45 44 43 44 44 45 44 53 57 61 66 66 63
97 92 97 95 95 99 98 99 99 95 93 92 85 82 78 72 64 60 59 59 59 59 52 50 50 49 47 48 47 46 47 46 57 62 65 68 65 73
94 95 96 97 98 99 98 97 97 93 91 85 84 81 76 71 65 63 62 62 58 52 53 52 52 53 50 50 50 51 52 49 59 66 72 72 72 72
96 97 98 98 98 96 95 92 93 92 89 90 89 83 79 73 63 63 65 59 55 55 56 56 55 54 54 54 53 54 55 49 54 69 71 73 74 81
94 95 97 94 95 94 93 98 96 93 92 94 87 84 78 70 66 63 60 59 59 58 57 58 58 59 58 49 52 56 54 46 48 63 77 82 78 84
86 89 94 97 96 94 94 95 95 97 91 88 85 84 79 72 67 67 68 65 63 63 63 62 63 65 56 50 47 48 47 42 41 43 65 71 78 86
87 89 91 94 94 96 95 98 97 95 92 87 83 82 79 77 75 73 72 70 68 68 66 65 64 66 63 51 47 45 43 41 39 39 39 51 62 71
87 89 90 89 91 94 96 97 97 91 90 89 85 82 79 79 78 77 74 70 65 63 65 64 59 58 60 53 44 43 43 42 40 40 42 44 51 62
90 94 94 94 94 92 90 90 91 93 92 89 87 86 84 83 80 77 73 67 63 60 56 53 51 48 48 48 46 45 45 45 45 47 48 49 52 54
91 94 91 94 97 97 96 95 97 97 94 90 89 91 85 87 81 78 73 69 64 56 51 50 49 49 48 49 48 47 47 50 50 52 59 63 66 67
96 94 93 92 92 97 97 97 97 98 97 94 94 90 89 88 82 79 75 68 63 55 52 50 50 51 51 51 50 52 53 55 59 65 69 71 71 73
96 95 96 97 98 99 98 98 97 96 96 99 95 91 91 87 84 80 74 66 59 57 57 56 56 54 53 52 53 56 57 57 60 67 73 78 81 81
93 97 98 98 99 99 98 97 98 97 98 98 97 96 94 93 88 78 72 66 62 60 60 60 59 57 57 57 58 58 58 60 63 73 77 75 76 78
90 90 97 99 99 98 99 99 98 98 99 98 98 97 98 92 85 80 78 73 66 64 62 60 57 56 58 59 60 63 64 69 74 76 77 75 73 70
96 91 92 96 99 99 99 99 98 98 98 98 98 98 97 94 89 82 79 73 69 64 61 59 59 58 56 54 57 59 61 64 69 71 75 77 77 73
98 97 97 98 98 98 98 98 98 98 98 98 98 98 98 98 94 84 79 74 72 68 65 62 57 58 59 57 56 57 56 57 58 60 63 64 62 60
98 98 97 95 98 98 98 98 98 98 98 98 98 98 98 98 88 79 73 71 69 66 63 61 62 63 65 64 61 59 60 62 63 63 63 64 64 65

GFSNE_prec_cthk_129.txt.gz
RH
72 73 77 82 82 86 89 89 95 92 88 88 90 90 91 90 93 94 97 90 83 71 59 51 42 34 30 30 32 34 33 32 30 28 27 28 27 27
75 76 83 84 85 89 90 90 91 92 93 90 90 90 96 96 98 96 95 89 79 70 56 44 37 35 34 34 36 36 36 33 32 31 29 30 28 27
81 88 89 87 94 93 95 95 96 96 94 91 92 95 98 96 98 93 86 81 76 63 51 43 42 41 39 41 37 35 35 35 34 36 35 34 31 30
86 91 87 97 94 93 98 95 95 95 94 94 93 98 95 97 97 90 84 77 68 59 54 48 48 43 42 40 38 38 40 38 40 38 39 38 36 34
87 92 95 93 96 96 96 96 96 97 97 94 97 97 97 99 93 88 87 85 76 66 59 53 48 47 44 44 45 45 42 41 42 42 43 43 42 40
95 94 90 96 98 96 96 97 98 98 96 97 97 98 99 94 90 88 86 81 70 61 56 53 50 48 50 49 45 44 43 40 44 44 45 46 46 45
96 96 97 98 97 97 97 96 98 98 98 98 99 98 96 92 93 87 82 74 65 59 57 56 58 58 53 53 50 46 43 41 47 48 54 54 52 53
97 97 98 98 97 98 98 98 98 97 99 98 99 97 95 96 87 86 79 70 67 65 67 63 62 55 52 51 49 47 43 42 49 57 57 55 55 59
97 98 99 98 98 98 98 99 98 96 99 99 98 96 97 91 87 85 78 71 70 65 66 63 58 56 57 53 51 48 46 46 53 60 61 62 61 59
91 93 95 95 97 98 98 99 98 98 98 98 97 95 95 94 93 84 80 77 68 68 64 59 59 60 56 53 50 49 52 50 55 64 64 66 63 68
81 87 90 92 96 96 96 99 98 98 98 98 96 96 98 96 92 88 81 77 73 67 64 67 65 62 59 56 49 50 56 52 51 66 69 74 73 75
66 67 77 85 85 86 88 92 97 97 97 98 97 97 95 93 90 86 79 74 71 73 72 69 67 64 60 53 48 50 56 53 50 59 74 78 83 77
56 61 66 70 80 87 89 91 94 97 97 97 98 93 91 90 88 86 81 80 79 78 78 75 70 64 63 56 50 47 45 47 44 46 61 73 80 75
59 66 69 73 75 83 86 92 95 96 97 98 98 96 93 90 87 87 86 83 82 80 77 72 68 66 62 64 56 47 44 43 44 42 41 49 64 67
53 62 70 74 79 79 89 97 95 95 98 96 96 97 95 94 91 89 87 87 83 77 73 69 67 64 57 54 53 47 43 43 44 45 42 42 45 56
54 60 65 73 78 84 90 93 90 97 97 97 97 98 98 95 90 90 88 82 78 76 71 66 59 55 51 52 53 46 45 46 46 47 47 46 47 48
57 61 64 73 78 83 87 95 92 92 97 98 98 99 98 97 95 91 86 84 79 75 71 66 58 53 52 53 53 49 49 49 48 49 52 57 63 65
64 64 69 75 79 88 94 93 98 96 96 96 97 98 98 98 96 92 93 87 80 77 71 64 58 57 57 55 53 52 51 52 53 56 64 67 69 69
68 70 75 80 87 91 95 99 97 97 99 98 99 98 98 98 94 93 91 89 85 76 67 62 61 60 58 56 56 55 54 54 54 64 69 72 74 75
70 78 81 89 92 94 95 97 99 99 99 98 97 98 98 98 97 97 97 92 80 73 70 67 65 60 58 59 59 58 57 57 59 59 67 74 74 71
62 79 91 95 99 99 96 95 98 98 98 97 98 98 98 98 98 98 97 89 81 79 76 72 66 63 59 57 58 59 60 62 62 65 71 73 75 73
55 66 93 94 96 98 98 98 93 94 97 98 98 98 98 98 98 98 97 92 87 81 74 70 68 63 60 60 58 55 57 61 62 64 65 66 66 66
55 62 78 97 91 98 98 98 94 95 96 97 97 98 97 96 98 97 97 93 87 80 77 73 67 62 59 60 58 57 59 60 59 57 58 58 59 60